Location: Washington
(38.8950°N, 77.0370°W)
Time: 07:43:32
(UTC-04:00)

ISS - All Passes

Search period start: 24 April 2014 00:00
Search period end: 04 May 2014 00:00
Orbit: 413 x 418 km, 51.6° (Epoch: 24 April)

Date Brightness Start Highest point End Pass type
(mag) Time Alt. Az. Time Alt. Az. Time Alt. Az.
24 Apr - 13:21:48 10° SSW 13:24:59 44° SE 13:28:11 10° ENE daylight
24 Apr - 14:59:04 10° W 15:01:49 24° NNW 15:04:36 10° NNE daylight
24 Apr - 18:16:03 10° N 18:17:28 12° NNE 18:18:53 10° NE daylight
24 Apr - 19:51:42 10° NW 19:54:54 40° NNE 19:58:05 10° ESE daylight
24 Apr - 21:28:52 10° W 21:31:26 21° SW 21:33:59 10° S visible
25 Apr - 12:33:32 10° S 12:36:16 24° SE 12:39:02 10° ENE daylight
25 Apr - 14:09:46 10° W 14:12:52 35° NNW 14:15:59 10° NE daylight
25 Apr - 15:49:10 10° NNW 15:50:22 11° NNW 15:51:33 10° N daylight
25 Apr - 17:27:45 10° N 17:28:19 10° N 17:28:53 10° NNE daylight
25 Apr - 19:03:03 10° NNW 19:05:57 26° NNE 19:08:50 10° E daylight
25 Apr - 20:39:35 10° WNW 20:42:43 37° SW 20:45:49 10° SSE visible
26 Apr - 11:45:51 10° SSE 11:47:33 13° SE 11:49:15 10° E daylight
26 Apr - 13:20:36 10° WSW 13:23:53 59° NW 13:27:12 10° NE daylight
26 Apr - 14:59:18 10° NW 15:01:09 14° NNW 15:03:01 10° NNE daylight
26 Apr - 18:14:23 10° NNW 18:16:50 19° NNE 18:19:17 10° ENE daylight
26 Apr - 19:50:31 10° NW 19:53:51 72° SW 19:57:10 10° SE daylight
27 Apr - 12:31:35 10° SW 12:34:53 75° SE 12:38:13 10° NE daylight
27 Apr - 14:09:30 10° WNW 14:11:54 18° NNW 14:14:19 10° NNE daylight
27 Apr - 17:25:40 10° NNW 17:27:35 14° NNE 17:29:29 10° NE daylight
27 Apr - 19:01:30 10° NW 19:04:49 62° NE 19:08:07 10° ESE daylight
27 Apr - 20:39:33 10° W 20:41:08 13° SW 20:42:44 10° SSW visible
28 Apr - 11:42:45 10° SSW 11:45:52 38° SE 11:48:59 10° ENE daylight
28 Apr - 13:19:47 10° W 13:22:38 25° NNW 13:25:28 10° NNE daylight
28 Apr - 14:59:51 10° NNW 15:00:15 10° N 15:00:38 10° N daylight
28 Apr - 16:36:58 10° N 16:38:11 12° NNE 16:39:24 10° NE daylight
28 Apr - 18:12:31 10° NW 18:15:38 36° NNE 18:18:45 10° E daylight
28 Apr - 19:49:29 10° WNW 19:52:12 23° SW 19:54:54 10° S daylight
29 Apr - 10:54:15 10° S 10:56:49 21° SE 10:59:23 10° E daylight
29 Apr - 12:30:11 10° WSW 12:33:19 39° NNW 12:36:29 10° NE daylight
29 Apr - 14:09:24 10° NW 14:10:44 12° NNW 14:12:04 10° N daylight
29 Apr - 17:23:31 10° NNW 17:26:18 24° NNE 17:29:05 10° E daylight
29 Apr - 18:59:55 10° WNW 19:03:06 43° SW 19:06:16 10° SSE daylight
30 Apr - 10:06:34 10° SSE 10:07:44 12° SE 10:08:54 10° ESE daylight
30 Apr - 11:40:41 10° WSW 11:44:00 69° NW 11:47:19 10° NE daylight
30 Apr - 13:19:11 10° NW 13:21:10 15° NNW 13:23:10 10° NNE daylight
30 Apr - 16:34:30 10° NNW 16:36:49 17° NNE 16:39:07 10° ENE daylight
30 Apr - 18:10:31 10° NW 18:13:51 84° SW 18:17:10 10° SE daylight
01 May - 10:51:22 10° SW 10:54:38 63° SE 10:57:56 10° ENE daylight
01 May - 12:29:03 10° WNW 12:31:34 20° NNW 12:34:06 10° NNE daylight
01 May - 15:45:27 10° NNW 15:47:10 13° NNE 15:48:54 10° NE daylight
01 May - 17:21:11 10° NW 17:24:27 53° NE 17:27:42 10° ESE daylight
01 May - 18:58:49 10° W 19:00:48 15° SW 19:02:47 10° SSW daylight
02 May - 10:02:16 10° SSW 10:05:16 32° SE 10:08:17 10° ENE daylight
02 May - 11:39:01 10° W 11:41:56 28° NNW 11:44:53 10° NNE daylight
02 May - 13:18:48 10° NNW 13:19:29 11° N 13:20:10 10° N daylight
02 May - 14:56:26 10° N 14:57:24 11° N 14:58:22 10° NNE daylight
02 May - 16:31:51 10° NW 16:34:53 32° NNE 16:37:54 10° E daylight
02 May - 18:08:37 10° WNW 18:11:29 27° SW 18:14:21 10° SSE daylight
03 May - 09:13:34 10° S 09:15:52 18° SE 09:18:11 10° E daylight
03 May - 10:49:05 10° WSW 10:52:17 45° NW 10:55:30 10° NE daylight
03 May - 12:28:06 10° NW 12:29:37 13° NNW 12:31:08 10° NNE daylight
03 May - 15:42:31 10° NNW 15:45:10 22° NNE 15:47:48 10° ENE daylight
03 May - 17:18:46 10° WNW 17:22:01 52° SW 17:25:14 10° SE daylight
